Location: Newark
(1.4667°N, 173.0333°E)
Time: 20:03:41
(UTC+00:00)

Tiangong 2 - Visible Passes

Search period start: 18 March 2019 00:00
Search period end: 28 March 2019 00:00
Orbit: 379 x 390 km, 42.8° (Epoch: 18 March)

Date Brightness Start Highest point End Pass type
(mag) Time Alt. Az. Time Alt. Az. Time Alt. Az.
23 Mar 3.1 07:48:48 10° SSW 07:50:00 18° S 07:50:00 18° S visible
24 Mar 4.1 08:25:45 10° WSW 08:26:35 16° WSW 08:26:35 16° WSW visible
25 Mar 0.9 07:26:00 10° SW 07:29:09 79° SE 07:31:00 22° NE visible
26 Mar 4.1 08:04:53 10° WNW 08:06:16 12° NW 08:07:40 10° NNW visible
26 Mar 3.5 17:56:44 10° N 17:59:18 23° NE 18:01:53 10° E visible
27 Mar 2.9 07:03:56 10° WSW 07:06:46 31° NW 07:09:35 10° NNE visible
